User: anonymous   Login
Location: Franzen
(48.6167°N, 15.3833°E)
Time: 02:48:43
(UTC+00:00)
Language:

FALCON 9 DEB - Orbit

View from above orbital plane
View from above orbital plane
View from above satellite
View from above satellite

Ground track
Ground track

The orbit data is extracted from the following two-line orbital elements,

1 46086U 20055BM  21164.70938030  .00012327  00000-0  12476-3 0  9998
2 46086  53.0058 214.2031 0010688 219.5848 140.4387 15.65703940 53106
Epoch (UTC): 13 June 2021 17:01:30
Eccentricity: 0.0010688
inclination: 53.0058°
perigee height: 364 km
apogee height: 378 km
right ascension of ascending node: 214.2031°
argument of perigee: 219.5848°
revolutions per day: 15.65703940
mean anomaly at epoch: 140.4387°
orbit number at epoch: 5310

The dashed part of the orbit path shows where the satellite is in the earth's shadow,  

DLR